Regional Weather Roundup
Issued by NWS

Home | Current Version | Previous Version | Text Only | Print | Product List | Glossary On
Versions: 1 2 3 4 5 6 7 8 9 10 11 12 13 14 15 16 17 18 19 20 21 22 23 24 25 26 27 28 29 30 31 32 33 34 35 36 37 38 39 40 41 42 43 44 45 46 47 48 49 50
000
ASUS46 KLOX 300113
RWRCA

SOUTHERN CALIFORNIA WEATHER ROUNDUP
NATIONAL WEATHER SERVICE OXNARD CALIFORNIA
600 PM PDT SUN MAY 29 2016

NOTE: "FAIR" INDICATES FEW OR NO CLOUDS BELOW 12,000 FEET WITH NO
SIGNIFICANT WEATHER AND/OR OBSTRUCTIONS TO VISIBILITY.

  -  STATIONS PRECEEDED BY AN ASTERISK (*) ARE NOT NWS OR FAA
     STATIONS AND ARE NOT SUBJECT TO NWS AND FAA QUALITY CONTROL.

CAZ041-042-087-300200-
LA AND ORANGE COUNTY COASTAL AREAS


CITY           SKY/WX    TMP DP  RH WIND       PRES   REMARKS
L.A. DOWNTOWN  SUNNY     67  54  63 W5        29.96S
L.A. AIRPORT   MOSUNNY   64  54  69 W15       29.97S
LONG BEACH     MOSUNNY   69  54  58 W12       29.96S

CITY           SKY/WX    TMP DP  RH WIND       PRES   REMARKS
AVALON           N/A     64 N/A N/A NW2         N/A
FULLERTON      SUNNY     72  52  49 VRB6      29.94S
*GETTY CENTER    N/A     63  50  63 SW12        N/A
HAWTHORNE      SUNNY     66  53  63 W12       29.97S
*LEO CARRILLO    N/A     66  52  61 W7          N/A
*LOS ALAMITOS  FAIR      70  54  57 SW10      29.96S
*REDONDO BEACH   N/A     65  55  68 W3        29.97F
SANTA ANA      MOSUNNY   67  53  61 SW8       29.96S
STA MONICA APT SUNNY     63  53  70 W10       29.97S
TORRANCE       MOSUNNY   66  57  72 W12       29.98S
*UCLA            N/A     63  50  63 SW15      29.94S

$$

CAZ547-548-048-300200-
LA COUNTY VALLEYS AND INLAND EMPIRE


CITY           SKY/WX    TMP DP  RH WIND       PRES   REMARKS
BURBANK        SUNNY     67  52  58 S10       29.94S
VAN NUYS       MOSUNNY   71  51  49 SE10      29.94S

CITY           SKY/WX    TMP DP  RH WIND       PRES   REMARKS
CORONA AIRPORT CLEAR     72  55  55 W14G20    29.94S
*CHATSWORTH      N/A     73  54  51 NE3       29.94S
CHINO          MOSUNNY   74  52  46 SW15      29.94F
MARCH AFB      SUNNY     73  53  48 NW8G18    29.94F
*NORTHRIDGE      N/A     72  50  46 SE5         N/A
ONTARIO        MOSUNNY   72  51  47 SW10      29.94S
*PASADENA        N/A     70  57  64 CALM        N/A
RIVERSIDE      MOSUNNY   74  52  46 W12       29.93F
SAN BERNARDINO MOSUNNY   75  50  41 SW6       29.94S
*SAN RAFAEL HI   N/A     68  50  52 E8G21       N/A
*SAUGUS          N/A     73  51  46 S10         N/A
*WHITEMAN AP   NOT AVBL
*WHITTIER HILL   N/A     66  53  63 SW8G45      N/A
*WOODLAND HILL   N/A     70  50  49 S7          N/A

$$

CAZ054-055-300200-
LA AND SAN BERNARDINO COUNTY MOUNTAINS


CITY           SKY/WX    TMP DP  RH WIND       PRES   REMARKS
*ACTON           N/A     75  50  40 W7          N/A
*BIG BEAR AIRP CLEAR     63  14  15 NE7       30.11F
*BIG PINES       N/A     60  32  35 CALM        N/A
SANDBERG       LGT RAIN  75  40  28 N21G29    30.05F
*WARM SPRINGS    N/A     71  53  52 CALM        N/A

$$

CAZ028-029-059-060-099-300200-
ANTELOPE VALLEY AND SURROUNDING AREAS


CITY           SKY/WX    TMP DP  RH WIND       PRES   REMARKS
LANCASTER      SUNNY     82  46  28 SW23      29.89S
PALMDALE       SUNNY     80  47  31 SW20      29.90S
*POPPY PARK      N/A     82  42  24 W14G29      N/A

CITY           SKY/WX    TMP DP  RH WIND       PRES   REMARKS
29 PALMS       MOSUNNY   85  24  11 S5        29.92F
BARSTOW/DAGGET SUNNY     88  23   9 CALM      29.84F
BISHOP         MOSUNNY   85  24  11 E6        29.93F
CHINA LAKE     SUNNY     89  26  10 W5        29.84F
EDWARDS AFB    SUNNY     89  21   8 VRB1      29.84F
MOJAVE         SUNNY     84  41  21 W21G29    29.90F
NEEDLES        SUNNY     94  24   8 SW14      29.78F
VICTORVILLE    MOSUNNY   82  34  17 S16       29.91S

$$

CAZ039-040-300200-
VENTURA AND SANTA BARBARA COUNTY COAST


CITY           SKY/WX    TMP DP  RH WIND       PRES   REMARKS
CAMARILLO      SUNNY     65  52  62 SW8       29.96F
NWS OXNARD       N/A     66  53  63 W9        29.96F
OXNARD AIRPORT SUNNY     63  54  72 W12       29.97F
*POINT MUGU    MOSUNNY   64  54  69 W9        29.98S
SBA APT/GOLETA CLOUDY    62  54  74 W12       29.97F
*SANTA BARBARA   N/A     63  53  68 NE1       30.05S
*VENTURA         N/A     64  55  72 SW6       29.95S

$$

CAZ044-045-300200-
VENTURA COUNTY VALLEYS


CITY           SKY/WX    TMP DP  RH WIND       PRES   REMARKS
*SIMI VALLEY     N/A     66  54  64 W3        29.91S
*WESTLAKE VILL   N/A     64  53  66 CALM      29.95R
*OJAI            N/A     66  56  69 W2        29.89S
*FILLMORE        N/A     68  56  64 W1        29.85R

$$

CAZ053-300200-
VENTURA COUNTY MOUNTAINS


CITY           SKY/WX    TMP DP  RH WIND       PRES   REMARKS
*ROSE VALLEY     N/A     72  59  64 MISG        N/A

$$

CAZ034-035-036-300200-
CENTRAL COAST AND SANTA YNEZ VALLEY


CITY           SKY/WX    TMP DP  RH WIND       PRES   REMARKS
SAN LUIS OBISP SUNNY     65  54  67 NW14      29.97F
SANTA MARIA    MOSUNNY   64  54  69 NW13      29.99S

CITY           SKY/WX    TMP DP  RH WIND       PRES   REMARKS
*CAL POLY SLO    N/A     64  55  72 W7          N/A
*LOMPOC        SUNNY     64  54  69 W13       29.98S
*PISMO BEACH     N/A     59  56  90 SW5       30.00S
*SANTA YNEZ    FAIR      72  52  49 NW15      29.95F

$$

CAZ037-038-051-300200-
SAN LUIS OBISPO COUNTY INTERIOR AND CUYAMA VALLEY


CITY           SKY/WX    TMP DP  RH WIND       PRES   REMARKS
*CUYAMA          N/A     77  47  34 W18       29.83S
PASO ROBLES    SUNNY     70  51  51 S17G29    29.90S

$$

CAZ032-033-061-300200-
SOUTHERN DESERTS


CITY           SKY/WX    TMP DP  RH WIND       PRES   REMARKS
BLYTHE         SUNNY     92  33  12 S14       29.78F
IMPERIAL       SUNNY     92  44  19 S3        29.76F
PALM SPRINGS   MOSUNNY   88  51  28 NW15      29.81F
THERMAL        SUNNY     90  35  14 SE6       29.76F

$$

ELSEWHERE ACROSS THE WESTERN UNITED STATES AND MEXICO


CITY           SKY/WX    TMP DP  RH WIND       PRES   REMARKS
DENVER, CO     CLOUDY    61  44  53 N10       30.11S
GRAND CANYON,  SUNNY     74  15  10 SW12G17   30.11F
HONOLULU, HI   MOSUNNY   81  68  65 S9        29.97F
KAHULUI, MAUI  MOSUNNY   84  61  45 NE9       29.97F
LAKE TAHOE, CA SUNNY     67  32  27 S7        30.14S
LAS VEGAS, NV  MOSUNNY   91  20   7 W3        29.79F
MAMMOTH LAKES, RAIN      62  37  38 W18G26    30.17R
MEXICO CITY, M CLOUDY    63  55  77 N8        30.34  THUNDER
PHOENIX, AZ    SUNNY     96  17   5 S13G20    29.76F
PORTLAND, OR   MOSUNNY   69  45  41 W12       30.15S
RENO, NV       PTSUNNY   81  29  15 W17G24    30.00S
SALT LAKE CITY CLOUDY    71  42  35 SE21G28   30.01R
SAN DIEGO, CA  CLOUDY    66  54  65 NW7       29.99S
SAN FRANCISCO, MOSUNNY   65  51  60 NW21      29.95S
SAN JOSE, CA   MOSUNNY   73  56  54 NW15      29.93S
SEATTLE, WA    MOSUNNY   63  42  46 N12       30.19R
TIJUANA, MEX   CLOUDY    64  52  63 W9        29.99F

$$

STATION/POSITION TIME  TEMP    WIND        PRES    VSBY  WAVE
                       AIR SEA DIR/SP/G                  HT/PER
                 (UTC) (F)     (DEG/KT/KT) (MB)    (MI)  (FT/S)
POINT ARGUELLO B NOT AVBL
WEST SANTA BARBA 0050   58 58  290/ 10/ 12 1015.2S         5/10
POINT CONCEPTION NOT AVBL
EAST SANTA BARBA 0000   58 59  270/ 10/ 12 1015.5F
SANTA MONICA BAY 0050   61 65  280/  8/ 10 1015.3F         3/15



USA.gov is the U.S. government's official web portal to all federal, state and local government web resources and services.